Time,TemperatureF,DewpointF,PressureIn,WindDirection,WindDirectionDegrees,WindSpeedMPH,WindSpeedGustMPH,Humidity,HourlyPrecipIn,Conditions,Clouds,dailyrainin,SoftwareType,DateUTC
2013-06-19 00:01:00,66.0,63.0,30.00,SE,125,0.0,0.0,90,0.00,,,0.18,,2013-06-19 05:01:00,
2013-06-19 00:11:00,66.0,63.0,30.01,SE,125,0.0,0.0,90,0.00,,,0.18,,2013-06-19 05:11:00,
2013-06-19 00:22:00,65.0,63.0,30.01,SE,124,0.0,0.0,92,0.00,,,0.18,,2013-06-19 05:22:00,
2013-06-19 00:32:00,65.0,63.0,30.01,SE,125,0.0,0.0,92,0.00,,,0.18,,2013-06-19 05:32:00,
2013-06-19 00:42:00,64.0,62.0,30.02,SE,125,0.0,0.0,93,0.00,,,0.18,,2013-06-19 05:42:00,
2013-06-19 00:52:00,64.0,62.0,30.03,SE,125,0.0,1.0,94,0.00,,,0.18,,2013-06-19 05:52:00,
2013-06-19 01:01:00,64.0,62.0,30.03,SE,125,0.0,3.0,92,0.00,,,0.18,,2013-06-19 06:01:00,
2013-06-19 01:11:00,64.0,62.0,30.03,SE,125,0.0,0.0,92,0.00,,,0.18,,2013-06-19 06:11:00,
2013-06-19 01:21:00,63.0,61.0,30.03,SE,125,0.0,0.0,93,0.00,,,0.18,,2013-06-19 06:21:00,
2013-06-19 01:33:00,63.0,61.0,30.02,SE,125,0.0,0.0,93,0.00,,,0.18,,2013-06-19 06:33:00,
2013-06-19 01:42:00,63.0,61.0,30.02,SE,125,0.0,0.0,93,0.00,,,0.18,,2013-06-19 06:42:00,
2013-06-19 01:52:00,63.0,61.0,30.02,SE,125,0.0,0.0,93,0.00,,,0.18,,2013-06-19 06:52:00,
2013-06-19 02:01:00,63.0,61.0,30.03,SE,126,0.0,0.0,93,0.00,,,0.18,,2013-06-19 07:01:00,
2013-06-19 02:11:00,62.0,60.0,30.02,SE,125,0.0,0.0,92,0.00,,,0.18,,2013-06-19 07:11:00,
2013-06-19 02:22:00,61.0,59.0,30.01,SE,126,0.0,0.0,94,0.00,,,0.18,,2013-06-19 07:22:00,
2013-06-19 02:33:00,61.0,59.0,30.01,SE,125,0.0,0.0,94,0.00,,,0.18,,2013-06-19 07:33:00,
2013-06-19 02:43:00,61.0,59.0,30.01,SE,126,0.0,0.0,94,0.00,,,0.18,,2013-06-19 07:43:00,
2013-06-19 02:53:00,61.0,59.0,30.01,SE,125,0.0,0.0,94,0.00,,,0.18,,2013-06-19 07:53:00,
2013-06-19 03:02:00,62.0,60.0,30.01,SE,125,0.0,0.0,94,0.00,,,0.18,,2013-06-19 08:02:00,
2013-06-19 03:11:00,61.0,59.0,30.01,SE,125,0.0,0.0,94,0.00,,,0.18,,2013-06-19 08:11:00,
2013-06-19 03:22:00,61.0,59.0,30.01,SE,125,0.0,0.0,94,0.00,,,0.18,,2013-06-19 08:22:00,
2013-06-19 03:33:00,60.0,58.0,30.01,SE,125,0.0,0.0,94,0.00,,,0.18,,2013-06-19 08:33:00,
2013-06-19 03:43:00,61.0,60.0,30.01,SE,125,0.0,0.0,96,0.00,,,0.18,,2013-06-19 08:43:00,
2013-06-19 03:53:00,61.0,60.0,30.01,SE,125,0.0,1.0,96,0.00,,,0.18,,2013-06-19 08:53:00,
2013-06-19 04:02:00,61.0,60.0,30.00,SE,125,0.0,2.0,96,0.00,,,0.18,,2013-06-19 09:02:00,
2013-06-19 04:11:00,61.0,60.0,29.99,SE,125,0.0,0.0,96,0.00,,,0.18,,2013-06-19 09:11:00,
2013-06-19 04:22:00,61.0,60.0,29.99,SE,125,2.0,3.0,96,0.00,,,0.18,,2013-06-19 09:22:00,
2013-06-19 04:34:00,61.0,60.0,29.99,SE,125,0.0,3.0,96,0.00,,,0.18,,2013-06-19 09:34:00,
2013-06-19 04:43:00,61.0,60.0,29.99,SE,125,0.0,2.0,96,0.00,,,0.18,,2013-06-19 09:43:00,
2013-06-19 04:53:00,61.0,60.0,30.00,SE,125,0.0,2.0,96,0.00,,,0.18,,2013-06-19 09:53:00,
2013-06-19 05:01:00,61.0,60.0,30.00,SE,125,0.0,1.0,96,0.00,,,0.18,,2013-06-19 10:01:00,
2013-06-19 05:11:00,60.0,59.0,30.00,SE,125,0.0,0.0,96,0.00,,,0.18,,2013-06-19 10:11:00,
2013-06-19 05:22:00,60.0,59.0,30.00,SE,125,0.0,0.0,96,0.00,,,0.18,,2013-06-19 10:22:00,
2013-06-19 05:33:00,60.0,59.0,30.00,SE,125,0.0,0.0,96,0.00,,,0.18,,2013-06-19 10:33:00,
2013-06-19 05:42:00,60.0,59.0,30.00,SE,125,0.0,0.0,96,0.00,,,0.18,,2013-06-19 10:42:00,
2013-06-19 05:52:00,60.0,59.0,30.00,SE,125,0.0,0.0,96,0.00,,,0.18,,2013-06-19 10:52:00,
2013-06-19 06:02:00,60.0,59.0,30.01,SE,125,0.0,0.0,97,0.00,,,0.18,,2013-06-19 11:02:00,
2013-06-19 06:11:00,60.0,59.0,30.01,SE,125,0.0,0.0,97,0.00,,,0.18,,2013-06-19 11:11:00,
2013-06-19 06:22:00,60.0,59.0,30.01,SE,125,0.0,0.0,97,0.00,,,0.18,,2013-06-19 11:22:00,
2013-06-19 06:33:00,60.0,59.0,30.01,SE,125,0.0,0.0,97,0.00,,,0.18,,2013-06-19 11:33:00,
2013-06-19 06:42:00,61.0,60.0,30.02,SE,125,0.0,0.0,97,0.00,,,0.18,,2013-06-19 11:42:00,
2013-06-19 06:54:00,62.0,61.0,30.02,SE,125,0.0,0.0,98,0.00,,,0.18,,2013-06-19 11:54:00,
2013-06-19 07:01:00,62.0,61.0,30.01,SE,125,0.0,1.0,97,0.00,,,0.18,,2013-06-19 12:01:00,
2013-06-19 07:11:00,63.0,62.0,30.01,SE,125,0.0,2.0,98,0.00,,,0.18,,2013-06-19 12:11:00,
2013-06-19 07:22:00,63.0,62.0,30.01,ESE,121,1.0,3.0,97,0.00,,,0.18,,2013-06-19 12:22:00,
2013-06-19 07:34:00,64.0,63.0,30.02,SE,126,1.0,3.0,96,0.00,,,0.18,,2013-06-19 12:34:00,
2013-06-19 07:44:00,64.0,63.0,30.02,ESE,109,2.0,4.0,96,0.00,,,0.18,,2013-06-19 12:44:00,
2013-06-19 07:52:00,65.0,64.0,30.02,East,100,1.0,5.0,95,0.00,,,0.18,,2013-06-19 12:52:00,
2013-06-19 08:02:00,66.0,64.0,30.03,SSE,149,3.0,6.0,94,0.00,,,0.18,,2013-06-19 13:02:00,
2013-06-19 08:11:00,67.0,64.0,30.02,SE,141,3.0,8.0,90,0.00,,,0.18,,2013-06-19 13:11:00,
2013-06-19 08:22:00,67.0,64.0,30.03,SE,146,5.0,7.0,89,0.00,,,0.18,,2013-06-19 13:22:00,
2013-06-19 08:33:00,68.0,64.0,30.03,SSE,157,6.0,8.0,88,0.00,,,0.18,,2013-06-19 13:33:00,
2013-06-19 08:42:00,68.0,64.0,30.03,SE,142,5.0,8.0,87,0.00,,,0.18,,2013-06-19 13:42:00,
2013-06-19 08:53:00,69.0,65.0,30.03,SSE,158,5.0,8.0,86,0.00,,,0.18,,2013-06-19 13:53:00,
2013-06-19 09:02:00,70.0,65.0,30.03,SSE,168,3.0,9.0,85,0.00,,,0.18,,2013-06-19 14:02:00,
2013-06-19 09:11:00,70.0,65.0,30.03,South,181,7.0,10.0,83,0.00,,,0.18,,2013-06-19 14:11:00,
2013-06-19 09:22:00,70.0,65.0,30.03,SE,146,4.0,8.0,84,0.00,,,0.18,,2013-06-19 14:22:00,
2013-06-19 09:33:00,71.0,65.0,30.03,SSE,157,4.0,9.0,82,0.00,,,0.18,,2013-06-19 14:33:00,
2013-06-19 09:43:00,71.0,65.0,30.03,ESE,119,5.0,9.0,82,0.00,,,0.18,,2013-06-19 14:43:00,
2013-06-19 09:52:00,72.0,65.0,30.03,ESE,120,5.0,8.0,80,0.00,,,0.18,,2013-06-19 14:52:00,
2013-06-19 10:01:00,73.0,65.0,30.03,ESE,122,8.0,10.0,77,0.00,,,0.18,,2013-06-19 15:01:00,
2013-06-19 10:11:00,74.0,66.0,30.03,SE,132,6.0,10.0,77,0.00,,,0.18,,2013-06-19 15:11:00,
2013-06-19 10:22:00,75.0,66.0,30.02,SSE,153,6.0,11.0,73,0.00,,,0.18,,2013-06-19 15:22:00,
2013-06-19 10:33:00,76.0,66.0,30.02,SE,128,6.0,9.0,71,0.00,,,0.18,,2013-06-19 15:33:00,
2013-06-19 10:42:00,77.0,66.0,30.01,SSE,150,6.0,11.0,68,0.00,,,0.18,,2013-06-19 15:42:00,
2013-06-19 11:11:00,80.0,67.0,30.01,SE,143,4.0,12.0,65,0.00,,,0.18,,2013-06-19 16:11:00,
2013-06-19 11:22:00,80.0,66.0,30.01,South,190,5.0,11.0,63,0.00,,,0.18,,2013-06-19 16:22:00,
2013-06-19 11:33:00,81.0,67.0,30.00,SSE,160,8.0,12.0,63,0.00,,,0.18,,2013-06-19 16:33:00,
2013-06-19 11:43:00,81.0,67.0,30.01,SSE,152,7.0,12.0,62,0.00,,,0.18,,2013-06-19 16:43:00,
2013-06-19 11:52:00,82.0,67.0,30.01,SSW,202,8.0,13.0,60,0.00,,,0.18,,2013-06-19 16:52:00,
2013-06-19 12:02:00,82.0,67.0,30.00,SSW,193,7.0,13.0,60,0.00,,,0.18,,2013-06-19 17:02:00,
2013-06-19 12:11:00,82.0,67.0,30.01,SSE,155,7.0,12.0,60,0.00,,,0.18,,2013-06-19 17:11:00,
2013-06-19 12:22:00,83.0,67.0,30.01,SSE,159,11.0,14.0,59,0.00,,,0.18,,2013-06-19 17:22:00,
2013-06-19 12:34:00,84.0,68.0,30.00,SE,146,5.0,14.0,59,0.00,,,0.18,,2013-06-19 17:34:00,
2013-06-19 12:43:00,84.0,68.0,30.00,SE,142,6.0,12.0,58,0.00,,,0.18,,2013-06-19 17:43:00,
2013-06-19 12:53:00,85.0,66.0,30.00,SSE,166,7.0,17.0,54,0.00,,,0.18,,2013-06-19 17:53:00,
2013-06-19 13:01:00,84.0,67.0,29.99,South,170,7.0,12.0,56,0.00,,,0.18,,2013-06-19 18:01:00,
2013-06-19 13:11:00,85.0,66.0,29.99,SE,134,9.0,16.0,53,0.00,,,0.18,,2013-06-19 18:11:00,
2013-06-19 13:23:00,85.0,67.0,29.98,SSE,164,7.0,17.0,55,0.00,,,0.17,,2013-06-19 18:23:00,
2013-06-19 13:33:00,85.0,68.0,29.98,SSE,168,10.0,16.0,56,0.00,,,0.17,,2013-06-19 18:33:00,
2013-06-19 13:44:00,86.0,67.0,29.98,South,182,8.0,18.0,54,0.00,,,0.17,,2013-06-19 18:44:00,
2013-06-19 13:53:00,86.0,66.0,29.98,South,174,12.0,16.0,51,0.00,,,0.17,,2013-06-19 18:53:00,
2013-06-19 14:01:00,86.0,66.0,29.98,SSE,167,9.0,17.0,52,0.00,,,0.17,,2013-06-19 19:01:00,
2013-06-19 14:11:00,86.0,63.0,29.98,SSE,156,10.0,17.0,46,0.00,,,0.17,,2013-06-19 19:11:00,
2013-06-19 14:22:00,86.0,63.0,29.97,SSE,164,10.0,15.0,47,0.00,,,0.00,,2013-06-19 19:22:00,
2013-06-19 14:32:00,87.0,64.0,29.97,SSE,156,12.0,17.0,46,0.00,,,0.00,,2013-06-19 19:32:00,
2013-06-19 14:43:00,87.0,63.0,29.98,South,171,13.0,20.0,45,0.00,,,0.00,,2013-06-19 19:43:00,
2013-06-19 14:52:00,86.0,63.0,29.97,SE,142,12.0,18.0,46,0.00,,,0.00,,2013-06-19 19:52:00,
2013-06-19 15:02:00,87.0,59.0,29.97,SSE,150,12.0,17.0,39,0.00,,,0.00,,2013-06-19 20:02:00,
2013-06-19 15:11:00,87.0,61.0,29.97,South,171,11.0,19.0,42,0.00,,,0.00,,2013-06-19 20:11:00,
2013-06-19 15:22:00,87.0,64.0,29.97,SSE,148,13.0,20.0,46,0.00,,,0.00,,2013-06-19 20:22:00,
2013-06-19 15:33:00,88.0,62.0,29.96,South,171,11.0,16.0,42,0.00,,,0.00,,2013-06-19 20:33:00,
2013-06-19 15:42:00,88.0,64.0,29.96,SSW,200,10.0,18.0,45,0.00,,,0.00,,2013-06-19 20:42:00,
2013-06-19 15:52:00,87.0,64.0,29.96,SSE,159,9.0,19.0,47,0.00,,,0.00,,2013-06-19 20:52:00,
2013-06-19 16:02:00,86.0,63.0,29.96,SE,138,9.0,16.0,47,0.00,,,0.00,,2013-06-19 21:02:00,
2013-06-19 16:11:00,87.0,62.0,29.96,SSE,148,12.0,20.0,44,0.00,,,0.00,,2013-06-19 21:11:00,
2013-06-19 16:22:00,87.0,63.0,29.95,SSW,192,12.0,18.0,45,0.00,,,0.00,,2013-06-19 21:22:00,
2013-06-19 16:33:00,86.0,63.0,29.95,SE,136,11.0,19.0,46,0.00,,,0.00,,2013-06-19 21:33:00,
2013-06-19 16:44:00,86.0,63.0,29.95,SSE,151,14.0,20.0,47,0.00,,,0.00,,2013-06-19 21:44:00,
2013-06-19 16:52:00,86.0,63.0,29.95,SSE,159,10.0,19.0,46,0.00,,,0.00,,2013-06-19 21:52:00,
2013-06-19 17:01:00,87.0,64.0,29.95,South,182,10.0,19.0,46,0.00,,,0.00,,2013-06-19 22:01:00,
2013-06-19 17:11:00,88.0,63.0,29.94,SSE,151,11.0,22.0,43,0.00,,,0.00,,2013-06-19 22:11:00,
2013-06-19 17:22:00,88.0,63.0,29.94,SE,144,11.0,18.0,43,0.00,,,0.00,,2013-06-19 22:22:00,
2013-06-19 17:34:00,88.0,62.0,29.94,SSE,168,15.0,21.0,42,0.00,,,0.00,,2013-06-19 22:34:00,
2013-06-19 17:42:00,87.0,63.0,29.93,SSE,148,14.0,17.0,45,0.00,,,0.00,,2013-06-19 22:42:00,
2013-06-19 17:53:00,87.0,62.0,29.93,SSE,168,11.0,22.0,44,0.00,,,0.00,,2013-06-19 22:53:00,
2013-06-19 18:02:00,87.0,62.0,29.93,SSE,157,15.0,21.0,43,0.00,,,0.00,,2013-06-19 23:02:00,
2013-06-19 18:12:00,86.0,61.0,29.93,South,184,12.0,20.0,43,0.00,,,0.00,,2013-06-19 23:12:00,
2013-06-19 18:23:00,87.0,60.0,29.93,South,181,13.0,18.0,40,0.00,,,0.00,,2013-06-19 23:23:00,
2013-06-19 18:33:00,86.0,60.0,29.93,South,184,12.0,17.0,41,0.00,,,0.00,,2013-06-19 23:33:00,
2013-06-19 18:43:00,86.0,60.0,29.93,South,171,13.0,18.0,42,0.00,,,0.00,,2013-06-19 23:43:00,
2013-06-19 18:52:00,85.0,60.0,29.93,South,184,11.0,17.0,43,0.00,,,0.00,,2013-06-19 23:52:00,
2013-06-19 19:01:00,85.0,62.0,29.92,SSW,197,9.0,16.0,46,0.00,,,0.00,,2013-06-20 00:01:00,
2013-06-19 19:12:00,85.0,62.0,29.92,SSE,152,11.0,18.0,46,0.00,,,0.00,,2013-06-20 00:12:00,
2013-06-19 19:22:00,85.0,63.0,29.92,SSE,151,11.0,18.0,48,0.00,,,0.00,,2013-06-20 00:22:00,
2013-06-19 19:33:00,84.0,62.0,29.92,SSE,165,9.0,19.0,48,0.00,,,0.00,,2013-06-20 00:33:00,
2013-06-19 19:44:00,83.0,61.0,29.93,SSE,161,12.0,19.0,48,0.00,,,0.00,,2013-06-20 00:44:00,
2013-06-19 19:52:00,83.0,62.0,29.93,South,169,11.0,16.0,49,0.00,,,0.00,,2013-06-20 00:52:00,
2013-06-19 20:02:00,82.0,62.0,29.93,South,169,9.0,16.0,51,0.00,,,0.00,,2013-06-20 01:02:00,
2013-06-19 20:11:00,82.0,62.0,29.93,SSE,162,9.0,14.0,51,0.00,,,0.00,,2013-06-20 01:11:00,
2013-06-19 20:22:00,82.0,63.0,29.93,SSE,157,8.0,13.0,53,0.00,,,0.00,,2013-06-20 01:22:00,
2013-06-19 20:33:00,81.0,63.0,29.93,South,169,8.0,13.0,55,0.00,,,0.00,,2013-06-20 01:33:00,
2013-06-19 20:44:00,80.0,63.0,29.93,SSE,157,8.0,13.0,56,0.00,,,0.00,,2013-06-20 01:44:00,
2013-06-19 20:52:00,79.0,62.0,29.93,SSE,149,5.0,11.0,57,0.00,,,0.00,,2013-06-20 01:52:00,
2013-06-19 21:02:00,79.0,63.0,29.93,SSE,154,5.0,9.0,58,0.00,,,0.00,,2013-06-20 02:02:00,
2013-06-19 21:11:00,78.0,63.0,29.93,SE,146,6.0,9.0,60,0.00,,,0.00,,2013-06-20 02:11:00,
2013-06-19 21:24:00,78.0,64.0,29.93,SSE,160,7.0,10.0,62,0.00,,,0.00,,2013-06-20 02:24:00,
2013-06-19 21:33:00,77.0,63.0,29.94,SSE,164,6.0,10.0,63,0.00,,,0.00,,2013-06-20 02:33:00,
2013-06-19 21:43:00,77.0,63.0,29.94,SE,141,7.0,12.0,63,0.00,,,0.00,,2013-06-20 02:43:00,
2013-06-19 21:52:00,77.0,64.0,29.94,South,170,7.0,11.0,64,0.00,,,0.00,,2013-06-20 02:52:00,
2013-06-19 22:02:00,76.0,63.0,29.95,SSE,167,7.0,11.0,64,0.00,,,0.00,,2013-06-20 03:02:00,
2013-06-19 22:11:00,76.0,63.0,29.95,SSE,158,7.0,11.0,65,0.00,,,0.00,,2013-06-20 03:11:00,
2013-06-19 22:22:00,76.0,63.0,29.96,SSE,165,6.0,12.0,65,0.00,,,0.00,,2013-06-20 03:22:00,
2013-06-19 22:33:00,75.0,63.0,29.96,South,170,6.0,11.0,66,0.00,,,0.00,,2013-06-20 03:33:00,
2013-06-19 22:43:00,75.0,63.0,29.96,SSE,148,7.0,10.0,66,0.00,,,0.00,,2013-06-20 03:43:00,
2013-06-19 22:53:00,75.0,63.0,29.96,SSE,155,6.0,9.0,67,0.00,,,0.00,,2013-06-20 03:53:00,
2013-06-19 23:01:00,74.0,63.0,29.97,SSE,157,6.0,10.0,68,0.00,,,0.00,,2013-06-20 04:01:00,
2013-06-19 23:11:00,74.0,63.0,29.98,SSE,161,5.0,9.0,68,0.00,,,0.00,,2013-06-20 04:11:00,
2013-06-19 23:22:00,74.0,63.0,29.98,SSE,153,4.0,8.0,69,0.00,,,0.00,,2013-06-20 04:22:00,
2013-06-19 23:33:00,73.0,63.0,29.97,SSE,153,4.0,7.0,70,0.00,,,0.00,,2013-06-20 04:33:00,
2013-06-19 23:43:00,73.0,63.0,29.98,South,172,4.0,7.0,71,0.00,,,0.00,,2013-06-20 04:43:00,
2013-06-19 23:53:00,73.0,63.0,29.98,SSE,166,5.0,9.0,72,0.00,,,0.00,,2013-06-20 04:53:00,